Location: Krakow
(50.0830°N, 19.9170°E)
Time: 07:27:53
(UTC+02:00)

A-11 Canister half - Pass Details

Date: 19 March 2026
Orbit: 1523 x 1684 km, 47.3° (Epoch: 18 April)

Event Time Altitude Azimuth Distance (km) Brightness Sun altitude
Rises 07:33:27 0° 213° (SSW) 4,906 11.5 16.1°
Reaches altitude 10° 07:36:54 10° 206° (SSW) 3,906 11.2 16.6°
Maximum altitude 07:45:48 38° 142° (SE) 2,299 11.1 17.9°
Drops below altitude 10° 07:54:27 10° 79° (E) 3,808 12.1 19.2°
Sets 07:57:45 0° 72° (ENE) 4,772 12.3 19.7°
